Location: Bailleul
(50.3375°N, 2.8513°E)
Time: 10:33:37
(UTC+00:00)

Cosmos 1980 - Pass Details

Date: 19 April 2021
Orbit: 838 x 848 km, 71.0° (Epoch: 05 May)

Event Time Altitude Azimuth Distance (km) Brightness Sun altitude
Rises 20:13:20 0° 330° (NNW) 3,419 8.2 -12.6°
Reaches altitude 10° 20:15:47 10° 331° (NNW) 2,481 7.2 -12.9°
Maximum altitude 20:21:31 86° 59° (ENE) 857 3.7 -13.7°
Enters shadow 20:25:47 18° 150° (SSE) 1,943 5.0 -14.2°
